Temp
80 79 80 79 79 79 78 79 80 79 77 78 76 76 77 74 69 67 67 68 70 74 75 74 76 79 78 79 79 78 77 79 79 76 74 73 72 72 74 74 75 77 78 78 81 82 82 82 82 81 80 80 80 79 79 80 79 79 78 79 80 78 78 75 74 74 74 74 74 75 75 76 76 76
78 79 80 79 79 81 79 80 81 78 78 76 77 76 75 75 73 69 68 69 71 71 75 75 75 76 78 79 79 78 77 79 79 76 74 72 72 73 74 73 73 74 76 77 79 80 81 81 81 82 81 80 80 79 79 79 78 79 78 79 78 78 77 74 73 74 74 74 74 74 75 76 75 76
79 78 79 78 77 78 81 80 80 78 78 77 76 75 76 75 76 73 69 67 71 76 75 76 77 78 78 80 79 79 78 79 78 75 73 72 74 74 73 72 72 72 74 75 76 78 80 81 82 81 80 80 79 79 79 78 78 79 79 78 79 78 76 73 73 73 73 73 73 74 75 75 75 75
81 79 79 78 77 78 77 80 80 78 77 77 75 77 76 75 76 75 72 72 72 74 75 75 77 80 78 79 78 77 78 79 77 74 72 73 73 71 70 71 71 71 72 73 75 75 77 79 80 81 80 80 79 79 79 78 79 79 78 79 78 78 74 73 73 73 73 73 73 74 75 75 75 73
80 79 78 77 77 77 77 78 80 80 80 79 77 77 75 75 74 75 74 73 71 73 75 75 77 79 79 77 76 76 76 75 74 73 73 72 71 70 69 69 70 71 71 71 72 73 75 77 78 80 80 80 79 79 79 79 79 78 78 78 78 74 72 72 73 73 73 73 73 74 74 74 73 72
80 78 76 77 77 77 76 78 79 79 80 80 79 77 78 75 76 75 75 72 71 72 73 75 76 76 79 76 75 76 74 74 74 72 72 73 72 70 69 68 69 70 70 70 70 71 72 73 75 76 79 80 79 79 78 79 78 77 77 76 73 71 71 72 73 73 73 73 73 73 73 72 72 72
77 77 76 78 77 81 78 78 79 80 79 79 78 78 77 76 76 76 75 72 72 72 72 73 75 75 76 75 75 75 76 76 74 72 72 73 72 71 69 68 69 69 69 69 69 68 68 70 72 73 75 77 78 78 78 76 73 74 73 69 69 70 70 71 72 72 73 73 73 73 72 72 72 72
78 79 77 78 79 78 76 76 76 76 77 78 77 78 76 76 78 76 76 76 75 73 73 72 74 75 74 73 73 76 76 75 73 73 72 74 72 71 70 69 68 69 69 69 68 68 67 68 69 70 72 73 74 73 71 70 68 68 67 67 68 69 69 68 69 71 71 71 71 72 72 72 72 72
78 78 78 79 79 76 76 77 76 77 76 78 77 78 77 75 76 77 77 76 72 73 73 73 74 74 72 72 73 76 73 72 71 72 73 73 70 69 70 70 70 69 69 68 67 67 67 67 68 68 69 69 69 67 67 67 66 66 66 66 66 67 67 67 67 68 69 68 69 69 70 70 70 70
79 79 78 79 78 78 77 77 76 75 76 76 76 76 77 77 76 75 75 75 74 74 73 73 73 71 72 71 71 74 74 72 70 70 71 71 70 69 68 67 69 70 70 67 67 67 66 67 67 67 67 67 67 67 67 66 66 65 64 65 65 65 66 66 66 66 66 66 67 67 68 68 68 69
79 80 80 79 78 78 77 77 77 76 76 78 77 77 77 76 74 75 74 74 73 73 72 72 73 73 73 72 72 73 74 73 72 71 69 68 69 68 67 66 69 70 68 68 69 68 67 67 66 65 65 66 66 67 67 67 67 66 64 63 64 65 65 65 65 65 65 65 65 65 66 67 68 68
79 79 80 80 79 79 78 77 77 77 77 77 78 78 77 76 74 74 74 73 73 72 72 72 72 71 72 70 71 72 72 70 69 71 71 69 67 67 67 67 67 67 66 64 65 67 67 67 66 66 66 67 67 67 67 67 68 67 65 63 64 65 64 64 64 64 64 64 64 63 63 63 66 68
79 80 80 80 79 80 82 83 82 81 81 78 77 77 75 75 75 73 73 73 72 72 72 72 72 71 70 71 71 71 71 71 71 71 71 70 70 68 66 67 68 67 65 65 64 64 64 64 64 65 65 66 67 68 68 68 68 67 65 64 64 65 64 64 64 64 64 64 64 63 62 61 63 65
78 79 80 81 84 83 83 84 84 83 83 84 83 79 76 76 75 73 72 72 72 72 71 71 71 71 71 71 71 72 72 73 71 69 70 69 69 67 67 68 67 67 66 63 62 63 65 64 63 64 65 67 69 67 67 68 67 66 65 64 65 65 64 64 63 63 63 63 63 63 63 62 63 63
78 78 80 79 82 84 84 84 84 83 83 82 82 83 82 82 78 75 73 72 73 72 72 72 71 71 71 72 72 73 73 72 72 71 70 70 69 68 66 65 66 68 66 64 62 62 64 64 63 64 65 67 67 67 67 67 66 65 65 64 64 64 64 64 63 63 63 62 62 62 62 62 63 62
78 78 78 79 79 80 80 80 81 82 83 82 81 81 82 82 83 83 78 75 73 73 72 72 72 72 72 72 72 72 72 72 71 71 70 70 70 69 68 68 67 67 69 65 63 62 64 65 64 63 65 66 67 67 65 65 65 65 64 64 64 64 64 63 63 63 63 63 62 62 62 62 63 62
77 77 77 77 77 80 83 83 81 78 79 81 80 80 81 81 80 76 76 79 80 76 75 73 72 72 73 72 71 73 73 74 72 71 71 70 69 70 69 70 70 65 69 66 64 62 63 64 64 62 65 66 67 67 64 64 64 64 64 64 64 63 63 63 63 63 63 62 62 62 62 62 62 61
77 76 76 76 77 77 79 79 79 79 78 78 78 78 78 78 81 80 75 75 78 79 78 75 74 75 74 74 74 75 75 73 72 71 71 71 70 70 70 72 72 67 69 68 65 62 62 64 64 63 64 66 66 66 64 63 64 64 64 63 63 63 63 63 63 63 62 62 61 61 61 61 61 59
77 77 77 77 78 77 77 78 80 79 78 77 77 77 77 77 77 78 79 78 77 77 78 77 77 78 76 76 77 76 75 76 76 75 74 73 72 72 71 68 68 66 68 69 67 64 64 65 64 64 63 63 64 66 62 61 63 63 63 63 62 62 62 62 62 62 62 62 61 60 60 59 59 59
77 77 77 77 77 77 76 79 79 81 79 76 76 76 76 76 76 76 80 75 76 80 79 79 79 78 78 75 78 77 75 75 76 77 74 72 71 70 69 69 69 67 67 70 69 67 64 66 65 64 63 63 63 64 65 62 63 63 63 62 62 61 61 61 62 62 62 61 61 60 59 58 58 58
76 76 77 76 77 77 77 78 71 72 79 77 76 75 75 76 76 76 78 74 70 71 71 71 72 72 71 70 69 68 70 74 75 73 71 71 71 70 68 69 69 68 67 68 70 70 65 65 66 62 60 62 62 61 63 63 62 62 62 61 61 61 60 61 61 61 61 61 60 60 58 57 57 58
75 76 81 81 77 77 77 74 70 70 75 75 76 75 75 75 74 75 78 79 77 70 68 68 69 70 70 70 70 69 68 68 72 73 71 74 72 70 70 69 69 69 68 68 71 68 67 65 64 60 60 61 62 62 61 62 62 61 61 60 60 60 60 60 60 60 60 60 59 59 57 57 57 58
75 76 78 80 79 78 77 70 68 68 74 75 75 75 75 74 74 76 77 77 77 76 74 74 73 73 73 74 72 73 72 72 75 75 76 74 72 70 70 70 70 67 67 69 72 67 65 63 63 62 57 56 59 61 61 62 61 61 63 61 60 60 59 59 59 59 59 59 58 58 57 56 57 59
73 74 76 78 73 68 68 67 65 65 66 74 75 75 74 74 74 77 76 76 77 76 77 76 75 75 75 73 73 72 73 73 74 74 75 74 73 71 71 71 70 69 70 69 72 69 67 65 63 64 63 59 56 58 60 59 60 61 61 61 60 60 60 60 59 58 58 58 57 57 56 56 57 58
72 73 74 74 75 66 63 62 61 60 61 67 75 74 74 76 77 79 75 77 81 77 75 75 75 74 73 73 72 72 71 71 72 73 74 74 74 73 72 70 70 70 73 69 69 71 65 64 64 62 62 62 59 57 59 59 59 60 61 60 60 59 59 59 59 58 56 56 55 55 55 56 57 58
71 73 73 73 73 67 63 61 59 58 59 61 69 74 68 68 68 74 77 75 74 74 74 73 73 73 73 72 71 71 71 72 72 72 73 73 74 74 75 74 72 70 72 70 66 71 66 60 64 61 62 61 59 59 56 56 58 59 60 59 60 59 59 58 58 57 57 57 56 55 55 56 57 58
72 73 73 74 75 66 61 58 57 57 58 62 65 61 62 63 64 69 70 71 71 71 71 71 72 72 72 72 71 71 71 71 71 71 72 73 73 73 74 75 77 75 75 70 69 71 69 64 65 63 62 62 59 56 57 54 54 57 57 57 58 58 58 57 56 56 56 56 56 56 55 56 57 58
71 70 72 72 61 56 53 54 55 56 59 64 59 58 59 61 65 68 69 68 69 70 69 70 70 71 72 72 72 72 72 72 72 72 72 72 73 73 73 74 74 74 72 69 69 71 71 68 64 65 65 62 59 56 55 56 57 55 55 56 57 57 57 57 56 57 57 56 55 55 55 54 57 57
70 65 57 55 55 56 55 55 56 58 60 55 54 56 58 65 65 65 66 68 68 67 69 70 71 72 72 73 73 74 73 72 71 70 71 72 72 72 72 72 73 73 73 70 69 70 70 69 66 65 63 62 61 60 58 55 55 54 55 54 53 55 57 57 56 56 56 55 54 54 54 56 57 58
60 57 57 56 57 60 62 66 66 66 68 65 63 62 64 65 66 66 66 67 67 67 68 69 70 71 72 72 72 71 70 70 70 70 70 70 70 71 70 70 70 72 73 72 70 69 69 68 68 65 62 62 62 60 58 55 54 55 56 55 54 57 57 56 56 56 56 55 55 55 56 58 57 58
63 64 65 64 60 60 61 62 65 65 68 69 70 70 70 68 68 68 67 66 67 67 67 67 68 70 71 71 69 69 71 71 72 72 71 70 70 70 70 69 69 70 71 71 71 69 69 68 68 65 62 61 60 59 57 57 55 54 55 55 55 52 55 56 57 56 56 56 56 56 57 57 58 61
62 63 64 62 65 67 68 68 68 68 69 68 68 69 70 71 70 70 69 70 68 68 69 70 70 70 70 68 69 69 69 70 71 71 70 69 69 70 70 67 65 67 69 69 68 69 70 69 67 64 65 62 60 57 57 56 55 54 54 56 56 56 56 55 55 56 57 56 55 54 55 56 56 58
60 60 60 61 63 65 66 67 68 70 71 71 71 70 70 70 70 69 67 66 67 68 67 67 68 68 68 68 68 69 68 69 70 71 70 70 70 70 69 65 65 66 67 68 66 66 65 63 63 62 60 60 61 58 55 54 54 55 54 55 55 55 56 57 56 56 56 55 54 54 54 55 57 58
55 56 57 59 59 61 63 65 66 68 69 70 71 71 69 70 69 69 68 67 67 68 68 68 67 67 67 67 67 67 67 68 69 69 68 70 70 68 67 66 65 66 67 67 67 63 59 58 59 59 60 60 59 58 57 55 54 54 55 55 55 54 56 57 57 57 56 55 54 53 54 55 57 59
56 57 58 59 60 61 62 63 64 67 68 69 70 70 70 69 69 68 68 68 68 67 66 67 68 67 67 67 67 67 67 67 68 68 69 69 68 67 65 65 66 67 67 65 64 60 59 57 57 56 56 56 55 58 59 59 55 54 55 55 55 54 55 56 56 56 56 56 56 55 55 55 56 58
54 57 57 58 60 61 62 63 65 65 67 68 69 69 69 68 68 68 68 68 67 66 66 66 65 65 65 66 66 66 67 67 68 68 68 67 67 66 64 64 65 66 66 65 62 59 58 57 57 55 54 53 53 52 53 57 57 56 54 53 54 55 56 57 58 58 57 56 57 56 54 54 56 58
55 57 58 59 60 61 62 63 64 64 65 66 67 66 67 68 68 68 68 66 67 67 67 66 65 65 65 65 65 65 66 66 66 67 67 67 67 66 65 64 64 64 64 62 59 59 58 57 57 56 54 53 52 51 52 57 57 58 57 54 54 55 57 57 57 56 57 58 57 57 57 57 57 59
55 57 58 59 60 61 62 63 64 64 65 65 65 66 67 67 68 68 68 67 67 66 66 66 65 65 66 66 65 66 66 67 66 66 66 66 66 65 65 65 64 63 62 60 59 58 58 57 57 57 56 53 52 52 51 55 56 57 57 58 56 58 60 58 56 56 57 58 58 59 59 58 59 60
56 57 59 60 61 62 62 63 63 63 64 65 65 65 66 67 67 67 67 67 66 66 66 65 65 65 65 66 66 66 66 66 66 66 66 66 66 65 65 64 62 60 59 58 58 58 58 57 57 57 57 55 54 54 54 53 54 57 58 57 60 58 59 59 58 58 58 57 58 59 60 56 56 58
61 62 62 62 63 63 63 64 63 64 64 64 64 64 63 63 63 63 63 63 63 64 64 65 65 64 65 65 65 66 66 66 66 66 66 65 65 64 64 63 61 59 58 57 57 57 57 57 58 58 58 58 59 59 58 57 57 58 58 58 58 60 60 60 59 59 58 59 59 57 56 54 58 54
63 62 63 63 63 63 63 63 63 62 62 63 63 63 62 61 61 62 62 62 62 61 61 61 62 62 62 62 62 62 63 63 62 61 61 60 60 60 60 59 58 58 57 56 57 56 57 58 61 63 62 59 59 59 57 55 53 54 56 58 57 58 60 61 62 61 60 59 58 57 55 55 56 52
60 59 60 61 62 62 63 62 62 62 61 62 62 62 62 61 61 62 62 62 61 61 61 60 60 61 60 60 60 59 59 59 59 58 59 59 58 58 59 58 58 58 57 56 56 57 58 61 63 61 59 59 58 56 54 54 53 54 55 56 58 57 57 58 61 61 63 60 58 55 52 51 50 52
61 59 59 60 60 60 60 61 61 61 61 61 61 61 60 60 60 60 60 60 61 61 60 60 60 60 59 60 60 60 59 58 58 58 58 58 58 58 58 58 58 58 58 58 58 58 59 60 60 59 58 58 58 58 55 55 54 54 53 54 55 57 59 57 58 58 59 59 61 62 61 58 53 50
59 60 59 59 59 59 59 59 59 60 60 59 59 59 60 60 60 60 60 60 61 60 60 60 60 59 59 59 59 59 59 59 59 58 58 58 58 58 58 58 58 58 58 58 58 58 59 59 59 58 57 56 56 56 56 56 55 55 56 56 55 56 57 57 58 57 56 56 58 60 60 61 62 63
59 59 59 59 59 59 59 60 59 59 59 59 59 59 59 59 59 59 59 59 59 60 60 60 60 60 60 60 59 57 57 60 59 59 59 58 58 58 58 58 58 58 58 58 58 57 58 58 58 59 58 57 57 57 58 58 56 56 55 55 55 55 56 56 56 56 57 57 58 57 57 58 59 60
MSLP
1017.78 1017.86 1017.86 1018.02 1018.02 1017.86 1017.74 1017.86 1017.90 1017.82 1017.90 1017.98 1018.18 1018.54 1019.02 1019.58 1020.70 1021.78 1022.02 1021.42 1021.02 1020.06 1019.42 1019.98 1018.98 1018.34 1018.38 1018.46 1018.38 1018.58 1018.74 1018.74 1018.82 1019.06 1019.18 1019.26 1019.22 1019.18 1019.14 1019.14 1019.06 1018.98 1018.90 1018.86 1018.86 1018.90 1018.98 1019.02 1019.06 1019.14 1019.34 1019.46 1019.58 1019.78 1019.82 1019.86 1020.10 1020.22 1020.34 1020.42 1020.54 1020.78 1020.94 1021.18 1021.30 1021.46 1021.54 1021.66 1021.74 1021.82 1021.90 1022.02 1022.18 1022.30
1017.74 1017.78 1017.82 1017.86 1018.02 1017.70 1017.74 1017.74 1017.62 1017.74 1017.74 1017.98 1018.22 1018.30 1018.58 1018.70 1019.74 1020.46 1021.38 1021.10 1020.22 1019.98 1019.30 1019.10 1019.26 1018.54 1018.46 1018.30 1018.42 1018.46 1018.70 1018.62 1018.78 1019.06 1019.18 1019.26 1019.26 1019.22 1019.26 1019.26 1019.22 1019.14 1019.02 1018.94 1018.90 1018.86 1018.90 1018.94 1018.98 1019.02 1019.14 1019.26 1019.38 1019.54 1019.62 1019.70 1019.94 1020.14 1020.38 1020.34 1020.58 1020.70 1020.86 1021.10 1021.30 1021.42 1021.54 1021.70 1021.78 1021.86 1021.94 1022.06 1022.22 1022.34
1017.78 1017.94 1017.98 1017.82 1017.90 1017.62 1017.58 1017.50 1017.54 1017.54 1017.54 1017.74 1017.94 1018.18 1018.18 1018.38 1018.58 1019.30 1019.90 1020.82 1019.74 1019.10 1019.66 1019.02 1018.38 1018.50 1018.38 1018.26 1018.38 1018.50 1018.58 1018.62 1018.78 1019.02 1019.14 1019.18 1019.22 1019.26 1019.26 1019.26 1019.26 1019.22 1019.10 1019.02 1018.94 1018.86 1018.86 1018.82 1018.86 1018.94 1019.02 1019.10 1019.22 1019.34 1019.46 1019.70 1019.86 1020.02 1020.18 1020.34 1020.46 1020.62 1020.86 1021.10 1021.18 1021.34 1021.50 1021.66 1021.78 1021.90 1021.98 1022.10 1022.26 1022.42
1017.66 1017.86 1017.98 1017.86 1017.82 1017.62 1017.62 1017.66 1017.50 1017.42 1017.42 1017.50 1017.70 1017.94 1018.18 1018.10 1018.18 1018.38 1019.14 1019.86 1019.86 1018.98 1018.90 1018.74 1018.46 1018.18 1018.38 1018.26 1018.62 1018.70 1018.70 1018.62 1018.78 1018.98 1019.10 1019.14 1019.22 1019.30 1019.26 1019.22 1019.22 1019.22 1019.18 1019.10 1018.98 1018.86 1018.82 1018.82 1018.82 1018.82 1018.90 1018.98 1019.10 1019.18 1019.30 1019.50 1019.70 1019.94 1020.18 1020.26 1020.38 1020.54 1020.86 1021.14 1021.26 1021.38 1021.54 1021.70 1021.82 1021.94 1022.02 1022.18 1022.30 1022.58
1017.54 1017.66 1017.78 1017.70 1017.58 1017.46 1017.74 1017.66 1017.46 1017.34 1017.26 1017.34 1017.46 1017.70 1018.06 1018.38 1018.34 1018.42 1018.90 1019.54 1019.78 1019.22 1018.46 1018.58 1018.54 1018.22 1018.18 1018.70 1018.46 1018.82 1018.94 1019.06 1019.06 1019.06 1019.14 1019.22 1019.34 1019.34 1019.30 1019.22 1019.18 1019.14 1019.18 1019.14 1019.10 1018.98 1018.86 1018.82 1018.78 1018.78 1018.82 1018.90 1018.98 1019.06 1019.18 1019.34 1019.54 1019.78 1020.02 1020.26 1020.34 1020.54 1020.82 1021.06 1021.22 1021.38 1021.54 1021.70 1021.82 1021.98 1022.10 1022.26 1022.46 1022.66
1017.50 1017.50 1017.62 1017.62 1017.50 1017.38 1017.62 1017.54 1017.46 1017.26 1017.22 1017.30 1017.58 1017.62 1017.74 1018.02 1018.18 1018.26 1018.74 1019.10 1019.38 1019.78 1018.90 1018.82 1018.34 1018.42 1018.10 1018.86 1018.38 1018.74 1019.06 1019.18 1019.10 1019.30 1019.34 1019.26 1019.26 1019.34 1019.30 1019.30 1019.22 1019.14 1019.14 1019.10 1019.06 1018.98 1018.90 1018.86 1018.78 1018.74 1018.70 1018.78 1018.86 1018.98 1019.10 1019.22 1019.38 1019.62 1019.86 1020.10 1020.30 1020.54 1020.78 1020.94 1021.14 1021.34 1021.54 1021.70 1021.86 1021.98 1022.14 1022.34 1022.54 1022.74
1017.42 1017.58 1017.62 1017.58 1017.50 1017.38 1017.58 1017.54 1017.46 1017.22 1017.22 1017.14 1017.38 1017.62 1017.62 1017.86 1017.86 1017.86 1018.06 1018.66 1019.34 1019.42 1019.30 1018.66 1018.86 1018.70 1018.50 1018.62 1018.70 1018.50 1018.54 1018.66 1018.86 1019.26 1019.38 1019.34 1019.30 1019.26 1019.30 1019.30 1019.26 1019.22 1019.18 1019.10 1019.02 1018.98 1018.90 1018.78 1018.74 1018.74 1018.70 1018.74 1018.82 1018.86 1018.98 1019.14 1019.30 1019.54 1019.78 1020.06 1020.30 1020.58 1020.82 1021.06 1021.10 1021.22 1021.46 1021.62 1021.78 1021.90 1022.10 1022.30 1022.50 1022.70
1017.42 1017.50 1017.62 1017.54 1017.46 1017.46 1017.74 1017.66 1017.58 1017.38 1017.26 1017.22 1017.22 1017.34 1017.46 1017.54 1017.58 1017.58 1017.82 1017.86 1018.26 1018.82 1019.30 1019.06 1018.82 1018.54 1018.74 1018.66 1018.30 1018.34 1018.46 1018.70 1019.02 1019.10 1019.18 1019.10 1019.26 1019.30 1019.30 1019.34 1019.38 1019.30 1019.26 1019.14 1019.06 1018.98 1018.90 1018.74 1018.70 1018.70 1018.70 1018.70 1018.78 1018.82 1018.90 1019.18 1019.38 1019.58 1019.78 1020.06 1020.34 1020.54 1020.74 1020.94 1021.10 1021.22 1021.30 1021.50 1021.66 1021.82 1022.02 1022.26 1022.46 1022.70
1017.14 1017.30 1017.38 1017.26 1017.26 1017.38 1017.74 1017.62 1017.62 1017.46 1017.42 1017.22 1017.26 1017.34 1017.26 1017.38 1017.26 1017.34 1017.54 1017.78 1017.90 1018.50 1018.90 1018.82 1018.50 1018.38 1018.54 1018.42 1018.42 1018.34 1018.86 1019.06 1019.06 1019.02 1019.14 1019.10 1019.22 1019.34 1019.30 1019.30 1019.26 1019.30 1019.26 1019.18 1019.06 1018.98 1018.90 1018.74 1018.66 1018.66 1018.70 1018.70 1018.74 1018.82 1018.94 1019.14 1019.42 1019.62 1019.82 1020.02 1020.26 1020.46 1020.66 1020.86 1021.02 1021.14 1021.26 1021.38 1021.58 1021.74 1021.98 1022.26 1022.42 1022.62
1016.74 1016.98 1017.06 1017.02 1017.06 1017.22 1017.54 1017.54 1017.42 1017.34 1017.34 1017.22 1017.30 1017.30 1017.22 1017.18 1017.22 1017.30 1017.46 1017.54 1017.74 1017.98 1018.22 1018.42 1018.70 1018.58 1018.70 1018.78 1018.58 1018.42 1018.46 1018.98 1019.34 1019.26 1019.10 1019.10 1019.22 1019.38 1019.58 1019.46 1019.38 1019.30 1019.30 1019.30 1019.18 1019.06 1018.94 1018.78 1018.70 1018.66 1018.66 1018.66 1018.70 1018.82 1018.94 1019.14 1019.38 1019.62 1019.82 1020.02 1020.22 1020.42 1020.58 1020.74 1020.94 1021.06 1021.22 1021.38 1021.54 1021.78 1021.98 1022.26 1022.46 1022.70
1016.42 1016.50 1016.58 1016.70 1016.78 1016.98 1017.06 1017.22 1017.22 1017.14 1017.18 1017.18 1017.18 1017.06 1017.06 1016.94 1017.14 1017.30 1017.46 1017.62 1017.82 1017.94 1018.22 1018.38 1018.26 1018.38 1018.30 1018.34 1018.82 1018.38 1018.18 1018.42 1018.70 1019.26 1019.70 1019.86 1019.50 1019.46 1019.46 1019.66 1019.46 1019.26 1019.34 1019.26 1019.18 1019.14 1019.06 1018.94 1018.82 1018.74 1018.70 1018.70 1018.74 1018.82 1018.98 1019.14 1019.30 1019.54 1019.78 1019.98 1020.18 1020.34 1020.46 1020.62 1020.82 1021.02 1021.18 1021.38 1021.54 1021.82 1022.06 1022.30 1022.50 1022.70
1016.22 1016.26 1016.26 1016.30 1016.38 1016.50 1016.58 1016.70 1016.74 1016.78 1016.98 1016.94 1017.06 1016.74 1016.78 1016.86 1017.06 1017.18 1017.30 1017.66 1017.86 1018.06 1018.22 1018.26 1018.38 1018.30 1018.38 1018.46 1018.26 1018.26 1018.58 1019.02 1019.10 1018.86 1019.10 1019.62 1019.74 1019.58 1019.38 1019.26 1019.42 1019.34 1019.42 1019.54 1019.38 1019.22 1019.10 1019.06 1018.98 1018.90 1018.90 1018.94 1018.94 1018.98 1019.10 1019.22 1019.34 1019.54 1019.74 1019.98 1020.14 1020.30 1020.46 1020.62 1020.78 1020.98 1021.14 1021.34 1021.54 1021.78 1022.06 1022.30 1022.46 1022.66
1015.98 1016.06 1016.06 1016.06 1016.06 1016.10 1016.10 1016.06 1016.14 1016.18 1016.26 1016.62 1016.94 1016.66 1016.54 1016.62 1016.86 1017.10 1017.26 1017.42 1017.70 1017.94 1018.10 1018.22 1018.10 1018.34 1018.54 1018.42 1018.66 1018.90 1018.94 1019.06 1018.78 1018.54 1018.66 1018.98 1018.94 1019.22 1019.50 1019.34 1019.10 1019.14 1019.38 1019.50 1019.46 1019.42 1019.26 1019.30 1019.30 1019.18 1019.22 1019.22 1019.18 1019.22 1019.22 1019.34 1019.42 1019.58 1019.78 1019.98 1020.14 1020.26 1020.38 1020.54 1020.70 1020.90 1021.10 1021.30 1021.50 1021.74 1021.98 1022.22 1022.38 1022.54
1015.86 1015.82 1015.82 1015.74 1015.74 1015.78 1015.78 1015.78 1015.78 1015.82 1015.82 1015.82 1015.98 1016.18 1016.34 1016.46 1016.58 1016.78 1017.06 1017.38 1017.54 1017.78 1018.14 1018.18 1018.22 1018.54 1018.50 1018.34 1018.34 1018.50 1018.22 1017.94 1018.14 1018.46 1018.70 1019.06 1018.86 1019.18 1019.42 1019.30 1019.02 1018.94 1019.18 1019.46 1019.58 1019.42 1019.26 1019.34 1019.42 1019.34 1019.34 1019.22 1019.14 1019.30 1019.34 1019.38 1019.46 1019.58 1019.74 1019.90 1020.06 1020.22 1020.34 1020.50 1020.58 1020.78 1021.02 1021.22 1021.38 1021.58 1021.82 1022.02 1022.26 1022.46
1015.78 1015.66 1015.54 1015.54 1015.50 1015.50 1015.54 1015.54 1015.50 1015.46 1015.46 1015.50 1015.54 1015.54 1015.58 1015.66 1015.98 1016.46 1016.82 1016.94 1017.10 1017.50 1017.66 1017.62 1017.90 1018.02 1018.02 1017.78 1017.66 1017.78 1017.66 1017.82 1017.94 1018.06 1018.22 1018.50 1018.82 1019.18 1019.62 1019.74 1018.94 1018.50 1018.78 1019.22 1019.38 1019.50 1019.26 1019.30 1019.46 1019.38 1019.22 1019.14 1019.10 1019.14 1019.18 1019.22 1019.38 1019.50 1019.62 1019.74 1019.94 1020.06 1020.22 1020.42 1020.58 1020.70 1020.90 1021.10 1021.26 1021.46 1021.62 1021.86 1022.10 1022.34
1015.46 1015.50 1015.46 1015.38 1015.30 1015.26 1015.26 1015.30 1015.30 1015.22 1015.14 1015.18 1015.18 1015.22 1015.22 1015.26 1015.18 1015.14 1015.66 1016.30 1016.90 1017.06 1017.34 1017.54 1017.54 1017.58 1017.58 1017.30 1017.38 1017.46 1017.54 1017.66 1017.70 1017.70 1017.90 1018.18 1018.46 1018.74 1018.98 1018.78 1018.78 1017.94 1018.02 1018.82 1019.22 1019.30 1019.14 1019.14 1019.30 1019.34 1019.14 1019.02 1018.98 1018.90 1018.94 1019.10 1019.22 1019.34 1019.46 1019.58 1019.70 1019.86 1019.98 1020.14 1020.34 1020.50 1020.70 1020.90 1021.10 1021.34 1021.50 1021.70 1021.94 1022.22
1015.14 1015.22 1015.30 1015.34 1015.18 1014.98 1014.86 1014.90 1014.94 1015.06 1015.10 1014.98 1014.94 1014.94 1014.94 1014.94 1014.90 1014.94 1014.86 1014.74 1015.14 1015.66 1016.34 1016.74 1016.94 1016.90 1016.78 1017.06 1016.94 1016.62 1016.62 1016.58 1017.34 1017.46 1017.82 1017.86 1017.94 1017.90 1018.06 1017.90 1017.74 1017.74 1017.62 1018.42 1018.98 1019.02 1018.90 1018.98 1019.14 1019.22 1018.86 1018.82 1018.78 1018.86 1018.90 1018.94 1019.06 1019.18 1019.30 1019.46 1019.58 1019.66 1019.78 1019.94 1020.06 1020.26 1020.50 1020.70 1020.94 1021.18 1021.42 1021.62 1021.86 1022.14
1014.74 1014.86 1015.02 1015.14 1015.10 1014.86 1014.74 1014.66 1014.74 1014.78 1014.86 1014.90 1014.94 1014.98 1014.98 1014.98 1014.82 1014.78 1014.74 1014.74 1014.66 1014.78 1015.22 1015.70 1016.18 1015.78 1015.74 1016.06 1015.78 1015.54 1015.62 1016.38 1016.86 1017.10 1017.30 1017.18 1017.46 1017.58 1017.34 1016.50 1016.62 1016.98 1017.14 1017.62 1018.10 1018.78 1018.70 1018.62 1018.86 1018.82 1018.50 1018.46 1018.54 1018.50 1018.54 1018.70 1018.82 1018.98 1019.10 1019.26 1019.42 1019.50 1019.62 1019.74 1019.86 1020.02 1020.26 1020.54 1020.82 1021.06 1021.34 1021.62 1021.82 1022.06
1014.26 1014.34 1014.42 1014.54 1014.66 1014.62 1014.62 1014.46 1014.42 1014.58 1014.66 1014.78 1014.86 1014.90 1014.90 1014.78 1014.66 1014.58 1014.54 1014.62 1014.66 1014.74 1014.70 1014.86 1014.90 1014.82 1014.86 1014.90 1014.78 1014.82 1015.02 1015.18 1015.26 1015.38 1015.66 1015.82 1016.02 1016.02 1016.02 1016.50 1016.54 1016.90 1016.86 1017.10 1017.74 1018.26 1017.94 1018.26 1018.58 1018.30 1018.26 1018.30 1018.34 1018.30 1018.38 1018.50 1018.62 1018.70 1018.86 1019.02 1019.18 1019.30 1019.46 1019.62 1019.78 1019.90 1020.10 1020.34 1020.66 1020.94 1021.18 1021.46 1021.74 1021.94
1013.90 1013.94 1014.06 1014.22 1014.34 1014.34 1014.34 1014.14 1014.10 1014.14 1014.22 1014.54 1014.74 1014.86 1014.74 1014.66 1014.50 1014.34 1013.90 1013.70 1013.70 1013.86 1013.98 1014.10 1014.14 1014.10 1014.10 1014.10 1014.22 1014.26 1014.50 1014.66 1014.66 1014.82 1015.02 1015.30 1015.82 1016.46 1016.98 1017.14 1016.82 1016.94 1016.74 1016.70 1017.18 1017.54 1017.58 1017.46 1017.78 1017.74 1017.90 1018.14 1018.30 1018.18 1018.14 1018.22 1018.26 1018.38 1018.50 1018.66 1018.86 1019.06 1019.22 1019.38 1019.58 1019.78 1019.98 1020.18 1020.50 1020.78 1021.06 1021.26 1021.54 1021.78
1013.70 1013.74 1013.74 1013.86 1013.98 1014.02 1014.06 1013.78 1013.82 1013.90 1014.02 1014.42 1014.62 1014.70 1014.70 1014.54 1014.46 1014.30 1013.74 1013.50 1013.54 1013.54 1013.54 1013.54 1013.50 1013.54 1013.62 1013.74 1013.78 1013.86 1013.98 1014.18 1014.42 1015.02 1015.74 1015.98 1015.90 1016.62 1017.02 1016.82 1016.82 1016.66 1016.54 1016.54 1016.42 1016.70 1017.22 1017.14 1017.26 1017.70 1017.98 1017.98 1017.98 1018.06 1018.02 1017.98 1018.06 1018.18 1018.34 1018.50 1018.66 1018.86 1019.06 1019.22 1019.38 1019.50 1019.70 1019.94 1020.18 1020.50 1020.82 1021.10 1021.38 1021.70
1013.54 1013.46 1013.42 1013.42 1013.62 1013.74 1013.66 1013.46 1013.50 1013.54 1013.78 1014.26 1014.30 1014.46 1014.58 1014.62 1014.62 1014.18 1013.62 1013.46 1013.34 1013.18 1013.26 1013.34 1013.34 1013.38 1013.42 1013.42 1013.46 1013.58 1013.78 1013.98 1014.26 1014.90 1015.74 1015.10 1015.50 1016.18 1016.26 1016.54 1016.30 1016.14 1016.18 1015.90 1015.74 1016.78 1016.50 1016.62 1016.98 1017.62 1017.98 1018.10 1017.94 1017.94 1018.02 1018.10 1018.14 1018.30 1018.42 1018.46 1018.54 1018.66 1018.82 1019.02 1019.22 1019.38 1019.54 1019.74 1019.98 1020.26 1020.62 1020.98 1021.34 1021.74
1013.34 1013.30 1013.18 1013.14 1013.14 1013.22 1013.18 1013.18 1013.26 1013.30 1013.50 1013.86 1013.98 1014.10 1014.42 1014.62 1014.54 1013.90 1013.46 1013.58 1013.58 1013.46 1013.54 1013.46 1013.46 1013.54 1013.42 1013.42 1013.50 1013.42 1013.42 1013.54 1013.74 1013.86 1014.02 1014.22 1014.98 1015.54 1015.58 1015.70 1015.90 1016.34 1015.86 1015.10 1015.14 1016.38 1016.26 1016.54 1016.74 1017.06 1018.14 1018.30 1017.74 1017.66 1017.78 1017.86 1017.90 1017.98 1018.06 1018.26 1018.46 1018.54 1018.66 1018.82 1019.02 1019.22 1019.38 1019.58 1019.86 1020.14 1020.50 1020.90 1021.22 1021.66
1013.30 1013.18 1013.10 1012.90 1012.82 1012.86 1012.82 1012.86 1012.90 1013.02 1013.10 1013.38 1013.46 1013.66 1014.10 1014.30 1014.22 1013.22 1013.30 1013.22 1013.22 1013.22 1013.22 1013.14 1013.02 1013.06 1012.86 1012.90 1012.94 1013.02 1013.14 1013.22 1013.26 1013.30 1013.34 1013.58 1013.98 1014.46 1014.74 1014.90 1015.14 1015.38 1014.58 1014.14 1014.26 1015.18 1015.22 1015.58 1016.18 1016.22 1016.14 1016.86 1017.38 1017.22 1017.38 1017.54 1017.54 1017.54 1017.66 1017.98 1018.26 1018.38 1018.54 1018.66 1018.82 1018.94 1019.14 1019.42 1019.74 1020.06 1020.38 1020.66 1020.94 1021.46
1013.38 1013.22 1013.06 1012.82 1012.66 1012.70 1012.78 1012.82 1012.82 1012.86 1012.90 1012.98 1013.06 1013.18 1013.42 1013.22 1012.74 1012.62 1013.06 1012.90 1012.74 1012.90 1012.90 1012.90 1012.86 1012.86 1012.78 1012.78 1012.78 1012.82 1012.86 1012.82 1012.78 1012.78 1012.82 1012.90 1013.06 1013.54 1014.06 1014.42 1014.62 1014.42 1013.46 1013.26 1013.42 1014.26 1014.90 1015.02 1015.50 1016.06 1016.26 1016.14 1016.14 1016.86 1016.86 1017.10 1017.34 1017.50 1017.54 1017.62 1017.86 1018.14 1018.34 1018.58 1018.74 1018.98 1019.14 1019.30 1019.66 1019.98 1020.26 1020.50 1020.78 1021.02
1013.22 1013.06 1012.82 1012.66 1012.38 1012.38 1012.42 1012.46 1012.50 1012.54 1012.62 1012.62 1012.86 1012.62 1012.42 1012.30 1012.46 1012.58 1012.46 1012.54 1012.66 1012.74 1012.74 1012.82 1012.86 1012.78 1012.78 1012.78 1012.74 1012.66 1012.54 1012.42 1012.34 1012.38 1012.38 1012.34 1012.42 1012.46 1012.54 1012.94 1013.50 1013.90 1013.22 1012.62 1012.94 1013.30 1014.06 1015.02 1014.62 1015.38 1015.54 1015.94 1016.02 1016.14 1016.90 1017.14 1017.02 1017.22 1017.42 1017.54 1017.58 1017.82 1018.14 1018.58 1018.90 1019.22 1019.42 1019.46 1019.70 1019.98 1020.18 1020.38 1020.62 1020.82
1012.90 1012.62 1012.54 1012.34 1012.18 1012.18 1012.22 1012.22 1012.18 1012.18 1012.26 1012.58 1012.70 1012.38 1012.26 1012.22 1012.22 1012.42 1012.66 1012.66 1012.74 1012.82 1012.86 1012.90 1012.94 1012.70 1012.58 1012.62 1012.54 1012.42 1012.34 1012.18 1012.14 1012.18 1012.10 1011.98 1011.98 1011.94 1011.82 1011.66 1011.66 1011.82 1011.54 1011.98 1012.26 1012.50 1013.06 1013.50 1013.74 1014.26 1014.58 1014.62 1015.18 1015.94 1015.98 1016.54 1016.82 1016.98 1017.30 1017.34 1017.50 1017.66 1017.90 1018.22 1018.66 1019.06 1019.42 1019.70 1019.82 1019.98 1020.14 1020.34 1020.58 1020.78
1012.70 1012.66 1012.50 1012.42 1012.42 1012.50 1012.46 1012.38 1012.30 1012.18 1012.22 1012.22 1012.06 1012.18 1012.18 1012.14 1012.26 1012.54 1012.62 1012.70 1012.70 1012.74 1012.82 1012.86 1012.74 1012.54 1012.22 1012.18 1012.18 1012.02 1011.78 1011.74 1011.66 1011.58 1011.50 1011.46 1011.30 1011.30 1011.26 1011.18 1011.14 1011.02 1011.26 1011.58 1011.74 1011.90 1012.14 1012.54 1012.98 1012.82 1012.98 1013.90 1014.62 1015.26 1015.34 1015.50 1015.74 1016.22 1016.50 1016.98 1017.26 1017.50 1017.82 1018.10 1018.46 1018.74 1019.06 1019.42 1019.82 1020.10 1020.38 1020.70 1020.78 1020.94
1012.66 1012.58 1012.62 1012.66 1012.58 1012.58 1012.58 1012.54 1012.54 1012.38 1012.10 1011.94 1011.86 1011.86 1011.94 1012.10 1012.34 1012.38 1012.42 1012.38 1012.42 1012.70 1012.66 1012.46 1012.26 1012.06 1011.78 1011.66 1011.42 1011.10 1011.06 1011.06 1011.18 1011.34 1011.18 1010.98 1010.94 1010.86 1010.86 1010.86 1010.90 1010.94 1011.10 1011.26 1011.34 1011.34 1011.42 1011.58 1011.86 1012.22 1012.82 1013.10 1013.46 1013.54 1013.98 1014.38 1014.86 1015.66 1015.94 1016.62 1017.22 1017.18 1017.42 1017.94 1018.34 1018.66 1019.02 1019.34 1019.62 1019.86 1020.02 1020.18 1020.38 1020.42
1012.78 1012.74 1012.66 1012.54 1012.46 1012.34 1012.22 1012.18 1012.14 1012.02 1011.82 1011.70 1011.70 1011.70 1011.78 1011.94 1011.98 1012.10 1012.14 1012.18 1012.26 1012.22 1012.02 1011.94 1011.86 1011.58 1011.34 1011.26 1011.06 1011.02 1011.14 1011.38 1011.38 1011.18 1011.14 1011.14 1011.06 1011.02 1011.14 1011.30 1011.14 1010.86 1010.74 1010.74 1010.90 1010.86 1010.82 1010.98 1011.14 1011.70 1012.22 1012.46 1012.58 1012.94 1013.42 1014.22 1015.10 1015.30 1015.54 1015.74 1016.14 1017.02 1017.22 1017.30 1017.70 1018.10 1018.62 1019.02 1019.30 1019.54 1019.62 1019.74 1019.86 1020.02
1012.70 1012.62 1012.50 1012.34 1012.26 1012.18 1012.02 1011.94 1011.74 1011.66 1011.42 1011.42 1011.30 1011.22 1011.18 1011.30 1011.38 1011.46 1011.90 1012.34 1012.42 1012.22 1011.98 1011.78 1011.58 1011.26 1010.98 1010.82 1010.94 1010.82 1010.78 1010.78 1010.46 1010.46 1010.82 1011.06 1010.98 1010.90 1010.82 1010.94 1010.98 1011.10 1010.62 1010.30 1010.14 1010.10 1010.10 1010.18 1010.38 1010.82 1011.70 1012.02 1012.46 1012.70 1013.02 1013.34 1014.02 1014.66 1014.94 1015.26 1015.38 1015.58 1016.10 1016.94 1017.38 1017.74 1018.10 1018.46 1018.90 1019.30 1019.54 1019.74 1019.90 1019.94
1012.70 1012.58 1012.38 1012.26 1012.06 1011.78 1011.62 1011.46 1011.34 1011.18 1011.06 1011.02 1010.98 1010.86 1010.74 1010.70 1010.66 1010.94 1011.38 1011.78 1011.62 1011.22 1011.18 1011.10 1010.94 1010.86 1010.78 1011.02 1010.82 1010.62 1010.66 1010.58 1010.30 1010.18 1010.42 1010.54 1010.38 1010.14 1010.34 1010.82 1011.22 1010.54 1009.90 1009.70 1009.58 1009.42 1009.50 1009.58 1009.62 1010.10 1010.22 1010.82 1011.54 1012.18 1012.86 1012.94 1013.10 1013.70 1014.34 1014.70 1015.10 1015.50 1015.82 1016.26 1016.82 1017.42 1017.82 1018.18 1018.74 1019.10 1019.34 1019.50 1019.66 1019.74
1012.82 1012.74 1012.58 1012.38 1012.06 1011.82 1011.58 1011.38 1011.14 1010.90 1010.70 1010.50 1010.34 1010.30 1010.30 1010.26 1010.30 1010.42 1010.66 1010.90 1010.70 1010.70 1011.10 1011.10 1010.82 1010.78 1010.70 1010.34 1009.98 1010.18 1010.30 1009.90 1009.62 1009.58 1009.94 1009.90 1010.02 1009.86 1010.10 1010.50 1010.70 1010.38 1010.14 1009.74 1009.54 1009.54 1009.78 1010.02 1010.14 1010.62 1011.10 1011.38 1011.42 1011.78 1012.46 1013.42 1013.74 1013.82 1014.10 1014.58 1015.10 1015.50 1015.94 1016.26 1016.62 1017.18 1017.66 1018.14 1018.50 1018.82 1019.18 1019.30 1019.38 1019.42
1013.10 1012.82 1012.62 1012.30 1012.14 1011.90 1011.62 1011.30 1010.90 1010.62 1010.42 1010.26 1010.02 1009.82 1009.70 1009.78 1009.86 1009.94 1010.14 1010.30 1010.38 1010.34 1010.34 1010.38 1010.38 1010.18 1009.94 1010.02 1009.82 1009.82 1009.86 1009.66 1009.54 1009.30 1009.38 1009.34 1009.30 1009.66 1009.70 1009.98 1009.94 1009.82 1009.50 1009.18 1009.18 1009.62 1010.18 1010.58 1010.66 1010.94 1011.14 1011.42 1011.58 1012.06 1012.34 1012.70 1013.54 1014.14 1014.54 1014.86 1015.10 1015.50 1015.82 1016.22 1016.74 1017.10 1017.34 1017.66 1018.18 1018.82 1019.06 1019.26 1019.22 1019.22
1012.78 1012.58 1012.42 1012.10 1011.90 1011.66 1011.38 1011.10 1010.70 1010.34 1010.18 1009.90 1009.66 1009.46 1009.30 1009.26 1009.30 1009.34 1009.50 1009.54 1009.66 1009.78 1009.90 1009.78 1009.54 1009.54 1009.66 1009.54 1009.38 1009.54 1009.42 1009.26 1008.98 1008.74 1008.66 1008.86 1008.98 1009.14 1009.42 1009.62 1009.22 1008.98 1009.02 1009.06 1008.94 1009.30 1009.78 1010.46 1010.74 1011.42 1011.90 1012.18 1012.38 1012.50 1012.42 1012.50 1013.02 1013.82 1014.42 1014.66 1014.78 1015.22 1015.78 1016.10 1016.54 1017.06 1017.46 1017.90 1018.14 1018.50 1018.78 1018.98 1018.98 1018.82
1012.82 1012.66 1012.42 1012.10 1011.82 1011.54 1011.30 1010.86 1010.42 1010.14 1009.90 1009.58 1009.38 1009.14 1009.06 1008.94 1008.78 1008.82 1008.86 1008.74 1009.02 1009.26 1009.42 1009.42 1009.30 1009.22 1009.22 1009.22 1009.06 1008.98 1008.86 1008.70 1008.54 1008.42 1008.38 1008.46 1008.54 1008.66 1008.94 1009.10 1009.10 1008.66 1008.34 1008.46 1008.86 1009.30 1009.70 1010.22 1010.30 1010.74 1011.38 1011.90 1012.18 1012.74 1012.98 1012.54 1012.58 1012.94 1013.66 1014.42 1014.50 1014.66 1015.14 1015.78 1016.22 1016.70 1017.14 1017.50 1017.78 1018.06 1018.30 1018.26 1018.26 1018.34
1012.58 1012.50 1012.30 1012.02 1011.70 1011.46 1011.18 1010.78 1010.46 1010.10 1009.78 1009.50 1009.22 1009.06 1008.94 1008.74 1008.50 1008.42 1008.34 1008.38 1008.58 1008.74 1008.86 1008.94 1009.18 1009.22 1009.22 1009.02 1008.82 1008.66 1008.50 1008.46 1008.30 1008.02 1007.98 1007.78 1007.90 1008.06 1008.30 1008.46 1008.54 1008.42 1008.30 1008.34 1008.62 1009.02 1009.34 1009.82 1010.06 1010.22 1010.82 1011.54 1011.94 1012.10 1012.46 1012.66 1012.74 1012.82 1012.94 1013.74 1014.38 1014.58 1014.94 1015.46 1016.02 1016.46 1016.66 1016.90 1017.26 1017.38 1017.34 1017.50 1017.58 1017.58
1012.62 1012.34 1012.14 1011.82 1011.54 1011.26 1010.90 1010.58 1010.26 1009.98 1009.62 1009.30 1009.06 1008.82 1008.62 1008.42 1008.22 1008.10 1007.98 1008.26 1008.34 1008.34 1008.34 1008.46 1008.50 1008.38 1008.26 1008.14 1008.22 1008.14 1007.94 1007.82 1007.74 1007.66 1007.42 1007.42 1007.54 1007.58 1007.66 1007.70 1007.86 1007.98 1008.06 1008.30 1008.58 1008.74 1008.86 1009.06 1009.38 1009.58 1009.74 1010.38 1011.18 1011.78 1012.46 1012.70 1013.02 1013.14 1013.14 1013.34 1013.98 1014.34 1014.62 1015.06 1015.58 1015.86 1016.14 1016.38 1016.54 1016.62 1017.02 1017.22 1017.02 1016.94
1012.30 1012.02 1011.74 1011.50 1011.22 1010.94 1010.70 1010.38 1010.06 1009.78 1009.42 1009.14 1008.90 1008.66 1008.42 1008.18 1008.02 1007.94 1007.94 1007.94 1007.94 1007.98 1007.94 1007.94 1007.90 1007.82 1007.82 1007.74 1007.66 1007.62 1007.54 1007.46 1007.42 1007.26 1007.14 1007.06 1007.06 1007.10 1007.14 1007.26 1007.50 1007.82 1008.14 1008.54 1008.70 1008.86 1009.02 1009.14 1009.26 1009.38 1009.50 1009.78 1010.10 1010.54 1010.98 1011.74 1012.26 1012.46 1012.94 1013.22 1013.58 1014.06 1014.30 1014.50 1014.78 1015.18 1015.62 1016.02 1016.22 1016.42 1016.62 1016.70 1016.82 1016.86
1011.62 1011.46 1011.26 1011.10 1010.86 1010.62 1010.42 1010.14 1009.94 1009.70 1009.46 1009.18 1008.90 1008.66 1008.50 1008.38 1008.26 1008.18 1008.14 1008.06 1008.02 1007.94 1007.86 1007.74 1007.62 1007.58 1007.50 1007.42 1007.38 1007.22 1007.14 1006.98 1006.86 1006.74 1006.66 1006.58 1006.58 1006.62 1006.62 1006.74 1007.18 1007.74 1008.14 1008.46 1008.70 1008.94 1009.18 1009.34 1009.50 1009.78 1010.10 1010.22 1010.50 1010.86 1011.34 1011.70 1012.10 1012.46 1012.82 1013.10 1013.22 1013.54 1013.82 1014.14 1014.46 1014.70 1015.14 1015.34 1015.78 1016.38 1016.58 1016.82 1016.86 1016.90
1011.46 1011.38 1011.18 1010.94 1010.74 1010.54 1010.34 1010.14 1010.02 1009.82 1009.66 1009.42 1009.18 1008.94 1008.78 1008.66 1008.50 1008.38 1008.30 1008.18 1008.10 1008.02 1007.98 1007.94 1007.86 1007.78 1007.66 1007.58 1007.50 1007.42 1007.30 1007.06 1006.90 1006.82 1006.78 1006.78 1006.78 1006.78 1006.86 1007.06 1007.54 1007.78 1008.06 1008.50 1008.70 1008.98 1009.22 1009.38 1009.50 1009.62 1009.82 1010.18 1010.54 1010.86 1011.42 1012.10 1012.74 1012.90 1013.02 1013.14 1013.30 1013.50 1013.66 1013.74 1013.98 1014.30 1014.50 1014.86 1015.38 1015.82 1016.22 1016.42 1016.42 1016.74
1011.34 1011.34 1011.18 1010.98 1010.86 1010.66 1010.42 1010.22 1010.02 1009.86 1009.70 1009.46 1009.22 1009.02 1008.82 1008.70 1008.62 1008.54 1008.46 1008.42 1008.42 1008.38 1008.38 1008.26 1008.10 1007.94 1007.82 1007.66 1007.54 1007.42 1007.34 1007.26 1007.18 1007.14 1007.10 1007.06 1007.10 1007.18 1007.26 1007.30 1007.54 1007.78 1007.98 1008.42 1008.66 1008.98 1009.22 1009.34 1009.42 1009.74 1010.06 1010.22 1010.50 1011.06 1011.82 1012.10 1012.66 1013.10 1013.14 1013.22 1013.38 1013.54 1013.70 1013.74 1013.74 1013.86 1014.06 1014.46 1015.06 1015.74 1016.14 1016.50 1016.54 1016.54
1011.26 1011.18 1011.06 1010.86 1010.70 1010.58 1010.46 1010.30 1010.10 1009.94 1009.78 1009.62 1009.50 1009.30 1009.14 1009.02 1008.90 1008.82 1008.74 1008.70 1008.62 1008.54 1008.46 1008.34 1008.26 1008.18 1008.06 1007.86 1007.66 1007.50 1007.46 1007.54 1007.54 1007.50 1007.42 1007.42 1007.38 1007.46 1007.58 1007.62 1007.74 1007.94 1008.18 1008.58 1008.94 1009.26 1009.46 1009.58 1009.78 1010.14 1010.58 1010.78 1010.94 1010.90 1011.50 1011.90 1012.18 1012.62 1012.98 1013.18 1013.38 1013.50 1013.66 1013.74 1013.78 1013.78 1013.86 1013.90 1013.90 1013.98 1014.26 1014.70 1015.58 1015.98
1011.10 1010.98 1010.82 1010.70 1010.58 1010.50 1010.38 1010.26 1010.14 1009.98 1009.86 1009.74 1009.62 1009.50 1009.38 1009.30 1009.18 1009.02 1008.90 1008.78 1008.66 1008.66 1008.54 1008.50 1008.46 1008.38 1008.26 1008.10 1007.94 1007.78 1007.74 1007.74 1007.66 1007.70 1007.74 1007.78 1007.78 1007.82 1007.90 1008.02 1008.14 1008.30 1008.54 1008.82 1009.22 1009.54 1009.70 1009.90 1010.10 1010.30 1010.62 1010.98 1011.02 1011.22 1011.58 1011.98 1012.42 1012.58 1012.78 1013.02 1013.26 1013.42 1013.50 1013.62 1013.74 1013.86 1013.94 1013.94 1013.78 1013.62 1013.54 1013.50 1013.42 1013.50
1010.98 1010.78 1010.66 1010.50 1010.46 1010.38 1010.30 1010.18 1010.10 1009.98 1009.82 1009.70 1009.62 1009.54 1009.46 1009.34 1009.26 1009.14 1009.02 1008.90 1008.86 1008.78 1008.74 1008.70 1008.62 1008.54 1008.42 1008.34 1008.26 1008.26 1008.14 1007.94 1007.90 1007.90 1007.90 1007.94 1008.02 1008.06 1008.06 1008.18 1008.42 1008.66 1008.94 1009.10 1009.42 1009.86 1010.02 1010.22 1010.38 1010.46 1010.74 1010.98 1011.02 1011.26 1011.58 1011.78 1012.14 1012.54 1012.78 1012.94 1013.06 1013.22 1013.34 1013.46 1013.62 1013.78 1013.82 1013.82 1013.74 1013.86 1013.94 1013.94 1013.86 1013.90
Wind_Speed
5 4 4 4 4 5 3 3 4 4 4 3 4 5 7 6 6 4 4 4 5 3 3 3 3 3 4 4 4 5 5 6 6 3 2 2 1 2 3 2 1 2 2 3 2 7 7 8 9 9 10 11 12 13 14 14 14 13 12 12 11 13 12 10 9 10 10 10 11 12 13 14 14 14
4 4 4 3 5 4 4 5 5 4 6 5 5 5 5 7 7 5 6 6 5 3 3 3 3 3 4 4 3 4 5 8 7 4 4 3 2 4 4 3 3 2 2 1 1 3 7 7 7 8 9 9 10 11 12 14 14 13 12 12 12 12 12 10 9 10 11 11 11 12 14 15 14 15
4 4 5 4 4 3 5 4 3 3 3 4 4 5 5 5 5 7 6 3 4 4 6 5 3 5 5 4 3 3 4 7 6 5 4 4 6 6 4 3 3 2 1 1 1 2 2 6 8 7 7 8 9 11 11 11 15 14 14 14 13 12 12 11 11 12 12 12 12 13 14 14 16 14
5 5 6 5 4 4 3 5 5 3 3 3 3 4 5 6 6 6 6 6 5 3 4 5 4 4 5 4 4 3 4 5 7 4 4 5 7 3 2 3 2 1 2 1 1 2 2 2 3 7 8 8 9 9 9 12 17 15 14 13 13 13 13 11 11 12 12 13 13 13 14 14 13 15
4 6 6 5 4 3 4 6 6 5 3 1 2 4 2 2 2 4 5 5 3 1 1 4 5 4 4 3 3 4 4 5 4 4 4 4 3 3 2 1 2 2 2 3 3 2 1 2 2 4 7 7 8 10 9 16 18 17 15 14 13 12 13 13 13 13 13 13 13 13 13 12 16 15
5 4 5 4 3 2 3 4 4 3 3 1 1 1 3 4 5 3 3 4 5 5 1 2 1 4 4 5 2 6 6 5 5 5 4 3 3 3 3 2 1 1 1 2 2 3 3 3 4 4 6 8 8 9 12 17 16 15 14 13 11 14 14 14 14 14 14 13 13 13 12 16 16 15
5 4 4 5 4 3 3 4 4 4 4 3 2 3 3 3 4 5 5 4 4 5 5 3 4 5 4 5 5 4 5 5 6 6 5 5 3 2 3 2 1 1 1 0 1 2 3 4 6 5 6 6 6 5 11 14 14 14 12 10 13 13 13 12 14 14 14 14 13 13 16 16 16 16
6 6 5 6 5 4 4 5 5 5 4 4 4 4 2 3 5 5 5 4 5 5 5 4 6 5 6 2 2 4 4 5 5 5 4 3 4 3 2 2 1 0 1 1 1 1 2 4 6 6 5 6 6 7 10 12 11 12 12 14 13 13 13 13 13 14 14 13 14 16 17 17 17 17
7 7 7 7 6 4 5 5 5 5 5 5 4 4 4 3 4 3 6 5 3 5 6 5 4 2 2 1 2 5 6 2 2 3 6 6 5 4 3 2 2 2 2 1 1 1 0 1 5 6 6 7 7 9 13 13 13 14 14 13 13 13 13 13 13 13 14 14 16 16 16 16 16 16
7 8 8 7 6 6 6 6 6 5 5 5 5 5 6 5 4 5 4 4 5 6 6 6 5 3 5 3 2 5 6 6 4 3 3 3 3 4 4 2 2 2 2 1 0 1 1 2 3 6 7 8 10 13 15 15 15 14 14 14 13 13 13 13 13 13 14 15 16 16 16 15 15 15
7 8 8 7 7 7 7 7 6 6 5 5 6 6 6 4 4 5 5 5 5 5 5 4 5 6 4 4 5 3 5 4 4 6 4 3 2 3 5 5 4 2 1 0 1 1 1 1 1 4 6 9 12 14 14 15 15 14 14 13 13 13 14 14 13 13 14 16 16 16 15 15 15 16
7 8 8 8 7 8 7 7 7 5 6 5 6 6 5 5 4 5 5 5 5 5 5 6 6 5 5 3 1 2 4 3 2 4 6 8 6 7 5 5 6 4 3 3 1 1 3 3 3 5 5 7 10 12 13 14 14 14 13 13 14 13 13 13 13 14 15 16 16 16 15 14 15 15
7 7 7 7 7 8 10 11 9 8 7 5 6 6 4 5 5 4 4 6 6 6 6 6 3 3 4 4 5 5 6 8 10 6 5 6 5 5 5 5 4 4 5 3 3 3 3 3 2 3 4 3 7 8 10 9 9 11 12 13 13 13 14 14 14 14 15 15 15 15 15 14 15 16
7 8 8 7 13 13 13 13 14 13 12 11 8 6 5 6 5 5 6 6 6 6 7 7 6 6 7 6 7 8 8 6 2 4 6 7 4 4 5 4 4 5 5 5 5 4 3 3 3 3 5 4 5 4 5 6 8 11 13 13 13 13 13 13 14 15 15 15 15 16 16 16 16 16
7 7 8 8 10 12 12 12 16 15 14 13 14 13 11 9 7 6 6 7 7 7 7 6 6 7 8 8 7 8 7 6 7 7 6 6 5 6 6 8 2 6 8 6 5 5 4 4 6 5 5 5 5 6 6 9 11 12 13 14 14 14 14 13 14 15 15 15 15 16 16 17 17 17
7 8 8 8 7 8 9 9 9 11 13 14 14 15 14 14 15 12 9 7 6 6 6 6 7 7 8 7 6 7 5 7 6 6 6 7 8 8 8 7 8 5 10 7 6 6 4 4 5 5 6 5 4 5 8 11 13 14 14 15 15 15 15 15 15 16 15 16 15 15 16 17 17 16
8 7 7 7 6 7 12 11 8 7 8 11 14 15 15 14 15 15 14 12 10 9 9 8 8 9 8 7 7 8 8 6 8 6 6 7 7 8 10 9 8 4 10 7 6 7 6 7 6 7 7 6 6 6 9 12 13 14 14 15 15 15 15 16 16 16 16 16 16 16 16 17 16 14
8 8 8 7 7 6 6 7 7 7 7 8 7 7 7 7 10 13 14 13 13 11 9 9 10 9 7 9 9 10 8 8 9 8 9 9 9 9 12 13 8 4 11 12 7 4 6 8 6 8 7 7 7 7 9 14 14 14 15 14 14 15 15 16 16 16 16 16 15 15 15 15 14 13
8 8 8 8 9 8 8 8 8 8 8 7 7 7 7 7 7 7 8 8 8 7 6 8 10 9 9 10 10 8 9 11 11 11 12 13 13 11 3 1 2 5 8 7 7 9 5 7 7 9 6 7 7 6 9 14 14 15 15 15 15 15 15 15 15 16 16 16 15 15 15 14 14 14
7 7 8 8 8 8 8 9 13 11 7 6 7 8 8 7 6 7 9 12 11 10 10 9 10 9 10 11 11 10 9 9 8 6 2 1 3 3 5 8 4 6 7 9 9 6 5 9 10 8 5 5 7 6 7 13 16 16 16 16 16 15 15 16 16 15 15 15 15 15 15 14 15 15
6 6 7 7 8 8 9 12 14 14 12 7 8 8 8 8 7 8 8 11 14 15 15 15 16 15 15 15 16 16 14 11 8 5 5 8 6 6 8 9 6 8 7 9 10 8 5 7 9 5 3 4 6 6 7 6 13 16 15 15 15 15 15 15 15 16 15 15 16 15 15 15 15 16
6 7 12 11 8 9 10 13 15 15 11 8 8 8 8 8 8 9 8 6 7 13 15 16 16 16 15 15 16 15 14 14 9 9 10 10 7 9 9 9 8 4 6 10 10 6 7 5 5 5 2 2 3 5 4 4 6 10 11 14 16 15 15 15 15 15 15 15 15 15 16 15 15 11
7 7 9 13 12 10 11 14 14 15 11 7 8 8 8 9 10 11 8 7 8 6 5 8 8 9 11 10 9 10 15 15 13 11 12 8 9 10 9 9 6 5 7 8 12 10 6 8 7 7 4 5 3 4 5 5 7 8 8 8 9 13 14 15 15 15 15 15 15 16 16 16 14 8
6 7 7 9 13 15 15 15 15 15 14 9 8 7 8 9 12 10 7 7 8 8 8 9 9 10 10 9 8 8 8 9 11 12 12 9 10 10 10 9 10 10 7 7 15 12 5 8 8 10 9 6 5 6 7 6 8 7 8 8 9 10 12 12 12 15 15 15 16 16 17 18 15 9
6 6 6 6 9 12 13 14 15 14 14 13 9 9 9 11 12 10 7 9 13 10 9 9 8 8 8 8 7 8 8 8 9 10 11 10 10 11 10 10 10 11 11 7 18 10 8 9 9 8 7 5 3 5 6 6 3 5 7 8 10 5 5 6 4 7 11 15 15 16 17 18 16 12
6 6 6 6 8 11 12 13 14 16 16 17 10 12 15 16 15 12 9 7 6 7 8 7 8 8 8 8 8 9 9 9 9 9 10 11 11 11 11 13 12 10 13 10 22 14 8 7 11 11 9 8 5 5 5 6 6 7 6 5 6 7 7 6 5 6 6 6 8 10 14 18 16 16
7 6 6 6 9 11 11 11 13 13 15 11 9 15 16 16 16 11 6 7 7 6 7 7 8 9 9 9 9 9 9 8 7 8 9 10 10 11 12 12 12 13 10 8 15 13 11 8 9 13 13 12 9 6 5 7 6 8 7 8 8 7 7 7 8 7 6 6 7 13 15 16 16 15
5 6 6 5 10 11 10 10 10 10 9 9 13 14 15 16 14 8 8 8 9 8 8 8 9 9 9 8 8 9 8 8 9 10 10 10 11 12 11 12 14 13 7 8 12 13 13 11 10 14 14 13 12 11 11 6 4 10 10 7 7 7 7 7 8 7 7 8 7 7 7 7 7 8
6 7 10 13 13 12 12 12 11 9 9 12 11 11 11 10 5 6 7 8 7 8 9 10 10 10 9 9 9 9 8 7 5 5 8 9 10 10 10 11 10 10 9 6 10 13 13 14 13 11 10 10 12 11 10 10 11 11 12 12 9 9 8 7 8 8 8 7 8 9 10 10 9 9
10 11 12 13 12 12 11 9 7 8 9 11 13 13 11 6 6 5 6 6 7 8 8 9 10 9 7 7 5 2 2 4 7 8 9 9 9 9 10 9 9 10 10 10 10 13 14 13 13 12 12 12 12 11 10 9 7 9 12 12 9 7 7 10 9 8 9 9 9 9 9 9 9 10
3 6 6 6 7 9 12 13 12 12 13 11 11 9 8 7 7 7 2 3 4 5 6 6 7 7 7 5 3 7 8 9 10 9 8 8 9 9 9 10 9 8 9 10 11 12 14 14 14 14 14 12 9 9 10 10 10 11 11 10 14 14 11 10 10 10 10 10 9 8 7 7 7 9
6 8 7 8 7 6 7 7 6 6 7 8 8 9 8 9 8 8 8 8 10 11 9 8 8 8 7 8 9 9 10 10 10 8 8 10 12 11 10 7 7 13 12 10 10 11 12 13 13 11 14 14 15 11 9 11 12 12 11 10 9 5 10 13 11 10 10 9 9 9 8 8 8 8
6 5 6 6 7 7 8 9 9 9 8 8 8 8 8 7 7 7 9 11 13 10 8 11 11 10 7 10 11 9 9 11 11 8 8 9 11 10 9 8 12 12 12 12 9 8 2 4 7 5 1 1 1 6 10 8 5 7 10 10 9 8 8 9 10 10 9 9 9 8 8 8 8 8
5 5 6 7 7 8 8 9 10 10 9 9 9 9 8 7 6 6 7 8 8 9 9 8 9 11 10 9 10 10 10 10 9 10 11 11 10 10 10 9 11 12 14 13 9 5 5 5 7 7 5 5 5 7 8 10 9 9 8 9 9 8 7 8 8 9 10 10 9 8 8 8 8 8
3 5 6 6 6 7 7 8 10 9 9 10 10 10 9 8 8 8 8 9 8 8 8 10 11 9 9 10 9 8 9 10 11 10 9 8 8 8 8 10 13 12 10 9 9 5 6 8 8 8 6 6 6 2 1 0 9 9 8 9 9 9 9 8 9 9 9 8 8 9 8 8 9 9
5 5 6 6 7 6 7 8 8 9 9 9 9 9 8 7 7 9 9 8 7 7 7 8 8 8 8 8 9 9 10 10 10 10 9 8 8 7 6 9 11 13 12 9 5 6 7 9 9 10 10 8 9 7 6 1 6 11 13 10 9 9 9 10 10 9 10 9 8 8 10 11 10 9
5 4 5 6 7 7 7 8 8 8 9 9 9 9 9 9 6 5 6 4 6 7 8 8 7 8 8 9 9 10 10 10 10 10 10 9 8 8 8 8 10 11 11 6 6 8 8 9 8 9 10 8 8 9 7 4 7 9 10 12 10 8 9 9 9 9 9 10 10 10 10 9 9 9
5 5 5 6 6 6 7 8 8 8 9 9 9 9 9 9 8 7 5 6 7 6 8 8 9 9 9 8 8 8 9 9 9 10 10 9 9 8 9 9 9 9 8 5 7 8 9 9 10 10 11 12 9 9 9 5 5 6 7 7 11 10 9 9 10 11 10 10 11 10 8 8 9 9
4 5 5 5 5 6 7 8 8 8 9 8 8 9 9 8 7 7 6 6 5 6 7 8 8 8 8 8 8 8 9 8 8 9 9 8 8 9 9 8 6 6 6 6 5 6 6 8 9 8 7 8 10 9 10 11 9 7 11 13 8 10 10 10 10 9 9 9 10 7 7 2 3 4
4 4 4 5 4 4 4 5 5 6 6 6 5 4 5 5 4 3 3 3 3 3 3 4 4 5 5 5 5 6 7 10 10 10 10 9 8 9 10 8 5 6 5 7 7 6 5 5 5 5 5 6 6 6 6 5 4 5 8 12 12 11 10 9 9 9 8 8 7 7 8 4 8 1
3 4 4 5 4 5 5 4 5 5 5 4 4 3 3 3 3 3 3 3 3 3 3 3 3 4 5 5 5 5 7 7 6 5 3 2 1 2 2 4 5 5 7 7 6 7 6 5 7 11 8 7 7 8 7 6 5 5 7 8 10 11 11 11 8 8 9 7 9 9 9 9 8 4
3 3 4 3 4 4 4 4 4 4 4 5 5 4 5 4 4 6 5 6 5 4 4 3 3 3 3 3 2 2 3 2 1 0 1 3 3 4 6 6 7 5 7 7 7 6 5 6 9 7 6 8 8 8 6 6 5 3 3 3 6 9 10 12 14 11 8 9 9 6 4 2 2 3
2 3 3 3 3 3 3 3 3 4 4 4 4 4 4 4 3 3 2 3 3 4 4 4 4 4 3 3 3 3 3 3 2 2 2 2 3 4 4 4 4 5 5 6 6 7 7 6 6 6 5 4 3 4 7 7 6 6 5 4 5 5 7 9 13 14 14 17 17 14 13 10 7 6
3 2 3 3 3 4 4 4 4 4 3 3 3 4 4 3 4 4 4 4 4 4 4 4 4 4 4 4 3 4 4 3 3 4 4 4 4 4 5 5 6 6 7 7 7 7 6 6 6 7 6 4 3 5 6 6 6 6 6 5 3 4 7 5 4 4 6 11 17 19 20 19 17 17
4 3 3 3 3 3 3 3 3 3 3 3 3 4 3 4 4 4 4 4 4 5 4 4 4 3 4 4 4 4 3 3 4 4 5 5 5 5 5 6 6 6 6 6 8 7 6 5 5 5 5 4 3 4 5 6 6 5 5 5 5 5 5 6 7 7 7 7 10 13 9 11 11 5
Wind_Direction
245 255 261 250 263 270 254 248 238 217 196 203 160 164 166 167 148 187 213 242 222 256 194 184 257 201 205 185 164 158 170 170 160 140 126 126 99 73 73 42 62 70 89 56 216 218 214 213 214 212 213 214 211 217 216 201 188 183 179 185 176 167 177 163 162 159 162 159 158 156 153 156 154 153
237 249 267 255 261 268 268 245 229 211 206 199 194 201 182 158 167 173 178 237 208 223 232 196 212 227 213 194 169 162 174 174 154 142 134 130 130 102 93 63 23 30 58 69 136 202 214 215 220 219 212 213 213 216 215 216 183 183 179 177 178 181 175 160 162 161 160 161 161 158 161 159 157 156
229 241 252 259 254 269 284 285 244 213 189 209 200 207 193 189 176 167 161 193 264 179 195 235 218 188 207 191 168 159 164 169 150 138 135 135 137 123 111 90 40 12 26 101 113 153 197 220 220 215 219 209 203 213 215 209 179 183 180 183 186 183 171 164 165 163 163 163 163 164 164 160 161 153
228 231 240 245 248 271 282 284 276 229 193 187 174 184 199 205 193 161 162 186 229 221 195 205 212 189 187 180 168 156 151 148 141 140 138 143 139 113 105 68 69 37 331 314 204 173 192 187 216 213 210 209 208 212 212 190 179 178 184 190 188 181 157 168 168 165 165 164 165 167 166 167 152 131
232 223 229 247 259 255 260 259 261 271 261 167 157 152 151 240 241 177 166 183 220 290 201 184 196 190 159 186 175 146 143 139 126 118 135 140 137 138 130 119 43 29 357 332 319 274 229 218 221 224 196 207 206 204 201 175 179 180 188 188 196 154 159 168 169 168 168 168 170 168 171 156 136 139
242 225 222 252 262 267 254 269 270 259 280 226 147 211 188 192 214 242 171 181 161 208 274 209 186 176 180 184 186 165 160 162 144 151 154 157 154 152 153 134 133 47 12 353 342 304 268 248 224 243 207 206 204 198 196 182 179 181 182 189 155 154 164 171 168 169 170 171 173 172 155 143 146 147
228 236 231 240 250 271 289 289 278 275 265 273 257 226 190 199 217 209 193 145 184 183 219 197 179 190 188 182 190 179 172 165 160 158 172 171 164 157 160 160 160 198 213 8 347 295 262 237 229 224 212 195 201 185 196 188 174 169 176 150 148 157 164 172 171 169 172 173 172 157 147 151 152 153
220 228 236 242 241 247 259 273 283 282 279 276 271 277 215 209 223 214 201 209 167 187 178 228 202 197 174 219 170 164 147 156 168 176 172 172 163 165 159 146 141 296 315 81 4 323 270 225 213 214 187 169 185 189 183 163 162 158 145 149 158 163 169 174 175 174 171 172 162 154 155 158 156 156
217 222 225 235 241 245 249 261 262 263 274 269 266 261 263 210 225 206 194 201 156 149 189 211 229 172 160 181 170 169 149 134 142 162 182 184 171 158 152 150 142 139 140 78 60 49 20 181 192 196 193 181 176 162 156 151 149 147 152 155 161 166 172 172 176 175 172 165 160 158 161 165 162 161
217 216 219 226 228 235 235 246 248 254 256 261 256 259 265 251 217 212 203 181 181 175 193 189 199 201 175 189 199 191 169 158 171 176 178 157 162 154 154 179 173 196 189 198 284 30 43 93 157 183 187 177 164 160 158 155 152 152 157 161 165 172 171 172 174 172 168 164 162 162 164 166 165 162
218 214 213 217 219 223 225 232 238 240 247 246 252 243 244 234 188 201 198 184 183 187 185 209 208 198 212 176 198 209 184 177 171 174 162 201 205 194 179 181 211 190 151 354 154 214 206 166 156 156 165 170 166 163 161 158 158 158 161 167 176 175 172 170 171 168 167 165 163 164 166 168 166 165
219 221 220 217 217 220 223 226 235 227 240 242 250 248 240 233 195 198 194 183 190 188 197 197 207 208 189 214 127 108 126 178 261 208 187 201 198 210 207 203 181 170 165 179 162 117 95 79 82 105 124 154 160 160 159 160 159 163 168 175 177 176 172 171 169 168 168 168 166 166 169 167 165 167
220 222 223 224 221 220 224 223 220 219 216 224 241 255 238 231 211 203 193 193 187 202 197 217 221 193 210 209 166 165 181 197 212 189 189 219 205 189 197 230 212 182 171 183 173 203 182 150 168 148 131 153 156 161 161 165 162 165 175 178 179 178 175 173 172 170 170 169 168 168 168 168 166 170
219 223 225 228 226 223 225 228 232 233 233 231 222 229 231 235 213 191 191 194 197 193 200 212 195 202 224 212 198 196 210 206 128 149 183 215 193 156 217 240 210 181 171 166 195 214 204 171 174 189 171 184 170 168 176 184 179 179 179 180 181 182 181 179 174 173 171 170 170 170 169 170 172 174
220 228 228 229 231 231 229 233 236 240 243 245 246 244 235 220 208 195 190 200 195 195 210 206 195 207 219 224 202 209 205 190 197 198 191 195 170 190 190 225 199 189 174 186 181 210 204 180 182 201 197 189 184 186 192 187 186 182 180 181 182 181 179 179 179 176 174 173 173 173 173 174 176 178
223 225 226 225 223 226 224 226 235 242 247 247 247 250 249 241 229 212 189 191 194 199 207 208 208 205 220 224 198 214 193 205 205 207 189 192 191 202 212 222 221 198 175 175 183 208 193 192 199 198 206 204 203 201 191 187 186 185 185 184 184 183 181 179 179 179 177 177 177 178 178 179 180 179
221 220 218 220 221 223 225 228 230 231 246 252 250 248 249 245 234 224 213 197 191 188 199 205 211 206 213 217 218 206 205 188 203 198 201 206 207 208 218 226 224 177 179 156 189 209 196 188 198 209 208 202 198 199 198 194 189 188 189 187 187 184 183 182 181 180 180 179 179 180 182 182 181 178
213 213 213 220 229 231 232 231 231 235 240 249 254 251 245 242 241 235 231 227 212 192 197 199 213 218 196 212 216 212 194 180 203 195 211 206 210 213 220 224 213 142 170 186 176 207 197 195 193 216 209 193 202 204 196 192 192 190 190 188 187 187 185 185 183 181 180 180 180 180 181 181 178 172
212 211 213 216 224 228 230 232 231 233 237 238 245 249 248 240 234 229 228 226 226 221 213 207 218 219 208 219 223 211 196 202 205 196 203 200 205 214 223 29 131 162 192 177 155 224 180 178 203 221 198 194 204 202 194 193 192 192 191 190 189 188 187 186 186 183 181 180 178 177 177 178 174 168
222 217 213 214 224 228 230 232 230 228 224 227 238 242 245 248 245 243 234 227 220 215 213 214 218 223 215 214 222 216 200 211 216 216 199 162 188 174 192 227 180 200 196 192 188 216 185 184 197 208 173 180 204 199 202 198 194 194 192 190 189 189 187 186 185 185 183 179 177 177 177 174 170 167
229 229 223 221 225 230 232 231 229 233 232 232 233 235 238 239 240 247 248 238 231 229 225 224 226 227 226 223 227 227 210 205 198 170 189 222 187 190 210 228 211 221 170 202 205 213 214 186 196 171 175 188 205 197 206 202 202 197 194 192 191 189 188 188 186 184 182 178 176 176 174 170 167 164
232 231 229 223 224 228 235 234 232 233 228 230 233 236 242 248 247 250 246 243 234 229 232 234 234 233 234 232 231 230 220 214 182 181 209 218 183 215 219 232 222 208 174 206 190 200 223 154 163 139 112 191 238 207 201 201 199 202 204 199 194 191 188 187 186 183 180 177 175 173 168 167 159 155
231 234 235 232 225 222 230 233 233 232 224 226 231 236 242 249 250 248 241 234 240 239 233 243 243 252 248 245 236 234 225 215 202 204 217 205 186 215 220 225 222 226 233 199 173 201 204 158 186 152 131 222 228 180 186 191 190 197 199 198 201 197 188 186 183 181 179 175 173 169 165 160 153 155
242 235 239 241 238 232 229 226 227 229 224 220 229 227 232 239 248 249 244 237 235 242 235 239 231 233 234 232 229 229 224 220 212 214 218 210 202 212 221 216 210 224 229 168 173 200 190 176 184 191 185 159 213 190 186 187 198 196 189 185 197 196 193 185 184 181 175 172 169 165 162 161 159 152
249 251 242 243 246 243 243 244 245 241 234 225 227 225 230 231 241 246 238 244 235 237 239 241 237 234 235 232 225 223 221 217 215 217 219 216 209 209 218 221 218 235 233 182 180 188 195 186 189 179 214 213 176 151 199 190 159 185 192 188 191 155 166 165 162 173 175 167 164 164 164 165 165 163
252 250 255 253 251 253 252 248 244 243 242 238 233 237 236 241 245 248 250 253 254 248 248 244 241 237 231 232 227 227 225 224 220 217 218 219 217 216 217 217 219 228 239 186 177 193 171 185 188 181 200 196 221 159 145 202 190 192 182 181 184 166 160 157 150 159 164 164 162 166 171 172 174 174
254 254 256 261 257 258 268 270 268 265 261 264 250 248 249 249 250 252 259 261 259 253 249 247 246 241 235 232 233 230 232 229 220 223 223 224 222 225 229 229 228 230 234 152 187 190 189 202 180 186 198 200 194 178 184 168 190 173 181 186 180 169 170 159 163 164 161 168 171 178 174 179 178 179
271 276 271 290 323 327 316 307 298 282 270 249 249 247 249 251 254 247 249 246 243 246 248 245 245 245 239 236 240 237 230 223 215 220 221 223 223 225 230 230 233 235 217 174 189 197 197 201 195 206 197 183 190 184 209 196 139 174 180 169 166 160 162 165 172 161 165 166 165 166 161 175 185 176
277 298 315 313 306 304 302 294 293 289 268 253 247 250 250 252 237 227 220 230 229 236 240 241 244 247 242 233 235 237 230 226 218 218 231 232 234 234 238 242 242 242 234 200 193 200 204 206 204 198 195 199 199 208 188 188 172 175 172 157 173 179 162 159 161 169 169 165 167 169 180 180 182 181
284 289 285 285 287 287 282 278 268 263 264 263 259 254 246 235 228 219 221 222 221 228 234 238 242 246 251 244 249 289 295 261 234 224 230 233 239 232 233 240 243 238 233 221 208 210 211 211 208 189 197 202 207 197 183 145 168 170 172 176 159 126 176 173 171 166 166 173 173 181 189 187 183 174
280 287 280 281 284 276 271 266 264 265 272 273 269 262 249 236 229 223 217 333 311 283 267 257 255 255 256 267 243 240 235 239 243 231 233 233 242 236 231 231 242 255 237 227 219 214 213 213 209 187 191 203 197 196 178 168 162 169 177 168 164 178 172 167 173 174 175 170 172 181 180 183 186 192
305 303 300 291 282 276 272 264 260 252 248 249 255 254 250 248 240 225 202 222 247 244 248 262 265 265 258 252 244 246 248 251 252 235 222 223 234 232 230 215 213 238 245 228 229 226 222 222 216 193 198 183 190 182 164 180 178 170 170 172 172 139 150 173 172 174 171 162 168 182 184 186 190 193
299 292 285 283 281 269 265 263 262 265 264 261 251 250 246 241 234 213 205 210 232 247 240 242 246 248 242 242 241 240 241 243 249 242 240 236 238 240 233 216 218 240 245 240 227 232 249 21 63 107 95 20 305 152 151 159 172 161 158 163 165 164 163 172 170 166 157 164 179 178 186 195 201 201
289 278 278 269 267 267 260 260 257 256 255 256 256 252 252 247 245 230 218 225 230 236 239 248 243 238 241 252 248 241 246 256 253 244 237 243 236 242 236 234 228 228 240 247 241 187 101 95 93 90 96 89 88 123 151 151 158 164 161 163 166 168 162 161 163 165 171 176 168 177 194 201 207 210
257 285 280 280 279 273 269 264 264 261 257 255 255 255 249 241 233 229 224 227 227 219 206 223 232 230 228 235 241 238 239 246 253 253 243 240 242 241 234 236 249 245 234 231 230 152 141 131 125 107 99 106 104 139 358 76 153 148 148 164 171 161 162 167 161 169 170 175 179 188 196 206 211 211
278 273 281 286 284 281 276 270 269 266 259 259 258 261 255 244 236 232 234 222 211 213 222 225 219 221 226 229 240 244 246 245 250 250 249 239 237 232 197 214 230 244 249 239 194 147 143 151 153 151 150 156 158 156 207 42 136 156 159 171 172 166 162 165 171 171 177 184 188 189 196 205 211 205
275 276 273 276 278 278 275 277 276 272 268 264 261 259 261 262 256 243 241 207 199 203 213 227 241 248 243 237 231 234 238 240 246 245 245 242 238 233 226 212 214 226 237 218 159 158 156 159 167 159 152 152 163 185 166 130 155 181 163 164 171 168 164 163 171 181 189 188 191 200 204 202 212 208
251 261 266 265 265 265 267 272 273 272 272 270 266 264 260 260 262 256 235 215 222 208 213 223 225 237 238 232 231 235 237 235 241 247 248 244 242 239 232 231 219 214 216 181 166 170 174 168 172 172 165 168 170 164 155 150 148 186 187 158 167 173 175 167 178 188 189 191 201 203 202 216 221 218
253 261 263 267 276 277 275 276 272 269 266 265 263 260 259 256 253 257 252 240 228 220 217 228 232 229 234 240 239 243 248 246 243 247 251 247 239 243 239 235 209 179 164 157 155 161 163 172 178 180 178 173 175 167 159 166 179 155 174 183 169 171 184 184 186 183 184 190 202 201 213 239 41 57
251 255 272 278 285 298 310 329 338 338 337 338 339 352 353 350 345 341 336 324 311 299 296 278 279 283 271 266 264 259 253 250 250 247 249 247 239 231 236 229 188 149 147 145 150 148 153 154 147 125 84 77 79 95 98 92 75 121 162 195 192 184 187 184 188 186 189 192 174 177 200 178 216 240
323 319 316 316 314 325 333 335 337 334 332 326 333 350 358 345 354 354 342 334 314 312 295 296 296 295 293 294 286 279 274 273 276 283 297 317 256 220 168 119 104 133 136 139 138 148 155 137 123 117 112 105 109 100 94 97 135 157 174 187 208 215 201 194 191 185 195 171 172 185 190 198 205 173
313 302 301 311 322 324 327 333 338 337 338 339 343 349 350 359 2 358 359 356 353 340 336 327 319 306 302 310 308 309 300 300 314 36 102 131 119 111 115 124 135 141 138 145 151 140 123 127 128 119 119 124 126 127 141 151 134 146 174 168 200 217 222 207 201 199 188 164 163 163 140 66 63 182
304 301 305 315 319 319 324 328 331 337 338 343 346 341 335 338 343 358 6 5 8 7 0 350 346 342 335 337 355 28 46 34 26 41 51 58 99 116 108 100 105 104 97 95 88 103 119 120 111 106 106 104 119 122 137 147 154 155 150 161 195 198 212 220 216 207 192 184 184 184 181 174 148 196
279 285 289 289 306 315 321 329 332 338 346 352 347 349 358 356 9 10 16 22 25 24 7 6 1 357 350 352 12 40 50 67 73 74 67 61 58 67 82 86 86 92 98 106 111 116 122 117 107 115 115 111 109 116 134 130 149 171 168 164 146 158 187 172 169 192 214 216 206 197 191 183 185 192
263 257 273 292 302 310 311 316 329 334 344 0 5 9 7 16 22 15 16 16 19 16 16 11 7 7 356 2 13 33 24 43 67 70 79 77 76 77 81 88 93 95 101 111 113 115 118 112 104 103 102 122 120 130 146 155 158 154 158 158 174 181 166 160 166 182 198 208 227 227 233 228 232 235